FW6002 Weather Reports


Display with metric or nautical units.
time (UTC)temp
F
wind
direction
speed
MPH
gust
MPH
rain 1hr
in
rain 24hr
in
rain mn
in
humidity
%
barometer
mb
20260510105555 70 0 0.0 5.0 0.00 0.00 0.00 88 1012.3
20260510105058 70 0 1.0 5.0 0.00 0.00 0.00 88 1012.3
20260510104608 70 219 0.0 2.0 0.00 0.00 0.00 88 1012.2
20260510104058 70 0 0.0 3.0 0.00 0.00 0.00 88 1012.1
20260510103556 70 0 0.0 3.0 0.00 0.00 0.00 88 1011.9
20260510103055 70 0 0.0 2.0 0.00 0.00 0.00 88 1011.8
20260510102555 70 217 0.0 4.0 0.00 0.00 0.00 88 1011.8
20260510102054 70 0 0.0 4.0 0.00 0.00 0.00 88 1011.6
20260510101557 70 0 0.0 4.0 0.00 0.00 0.00 88 1011.5
20260510101055 70 0 0.0 3.0 0.00 0.00 0.00 88 1011.4
20260510100555 70 198 0.0 2.0 0.00 0.00 0.00 88 1011.3
20260510100058 70 217 0.0 2.0 0.00 0.00 0.00 88 1011.2
20260510095555 70 0 0.0 2.0 0.00 0.00 0.00 88 1011.1
20260510095055 70 246 0.0 2.0 0.00 0.00 0.00 88 1011.1
20260510094600 71 0 0.0 2.0 0.00 0.00 0.00 88 1011.0
20260510094056 71 0 0.0 4.0 0.00 0.00 0.00 89 1011.1
20260510093554 71 0 0.0 4.0 0.00 0.00 0.00 89 1010.9
20260510093057 70 240 0.0 1.0 0.00 0.00 0.00 88 1011.0
20260510092555 70 0 0.0 1.0 0.00 0.00 0.00 89 1010.8
20260510092058 70 0 0.0 0.0 0.00 0.00 0.00 88 1010.8
20260510091554 70 0 0.0 0.0 0.00 0.00 0.00 89 1010.6
20260510091054 70 0 0.0 0.0 0.00 0.00 0.00 88 1010.7
20260510090554 70 0 0.0 0.0 0.00 0.00 0.00 88 1010.6
20260510090056 70 0 0.0 0.0 0.00 0.00 0.00 88 1010.4
20260510085553 70 0 0.0 0.0 0.00 0.00 0.00 87 1010.1
20260510085054 70 0 0.0 0.0 0.00 0.00 0.00 86 1010.0
20260510084559 71 0 0.0 0.0 0.00 0.00 0.00 86 1009.8
20260510084055 71 0 0.0 1.0 0.00 0.00 0.00 86 1009.7
20260510083555 72 0 0.0 1.0 0.00 0.00 0.00 85 1009.8
20260510083101 72 0 0.0 1.0 0.00 0.00 0.00 86 1009.8
20260510082554 72 0 0.0 1.0 0.00 0.00 0.00 86 1009.6
20260510082054 72 0 0.0 1.0 0.00 0.00 0.00 86 1009.7
20260510081557 72 0 0.0 1.0 0.00 0.00 0.00 87 1009.9
20260510081054 72 0 0.0 1.0 0.00 0.00 0.00 87 1009.7
20260510080554 72 0 0.0 1.0 0.00 0.00 0.00 87 1009.8
20260510080059 72 88 0.0 1.0 0.00 0.00 0.00 87 1009.6
20260510075554 72 0 0.0 2.0 0.00 0.00 0.00 86 1009.8
20260510075058 72 0 0.0 3.0 0.00 0.00 0.00 86 1009.8
20260510074624 72 0 0.0 3.0 0.00 0.00 0.00 86 1009.8
20260510074053 72 0 0.0 2.0 0.00 0.00 0.00 85 1009.6
20260510073554 72 163 0.0 2.0 0.00 0.00 0.00 86 1009.6
20260510073058 72 0 0.0 2.0 0.00 0.00 0.00 86 1009.7
20260510072555 71 0 0.0 2.0 0.00 0.00 0.00 87 1009.8
20260510072058 71 0 0.0 0.0 0.00 0.00 0.00 87 1010.1
20260510071601 70 0 0.0 0.0 0.00 0.00 0.00 86 1010.1
20260510071058 70 0 0.0 0.0 0.00 0.00 0.00 85 1010.0
20260510070554 71 0 0.0 0.0 0.00 0.00 0.00 85 1009.6
20260510070057 71 0 0.0 0.0 0.00 0.00 0.00 84 1009.4
20260510065557 71 0 0.0 0.0 0.00 0.00 0.00 84 1009.1
20260510065055 71 0 0.0 0.0 0.00 0.00 0.00 83 1009.3
20260510064609 72 0 0.0 1.0 0.00 0.00 0.00 82 1009.3
20260510064054 72 0 0.0 1.0 0.00 0.00 0.00 82 1009.4
20260510063554 73 0 0.0 2.0 0.00 0.00 0.00 81 1009.4
20260510063103 73 0 0.0 3.0 0.00 0.00 0.00 81 1009.3
20260510062554 73 0 0.0 4.0 0.00 0.00 0.00 81 1009.2
20260510062054 73 55 0.0 4.0 0.00 0.00 0.00 80 1008.9
20260510061554 73 51 0.0 3.0 0.00 0.00 0.00 80 1008.9
20260510061055 73 232 0.0 3.0 0.00 0.00 0.00 80 1009.0
20260510060555 73 0 1.0 3.0 0.00 0.00 0.00 79 1008.9
20260510060058 73 52 1.0 3.0 0.00 0.00 0.00 79 1008.8
20260510055553 74 0 0.0 3.0 0.00 0.00 0.00 79 1008.8
20260510055055 73 0 0.0 4.0 0.00 0.00 0.00 79 1008.9
20260510054557 73 69 0.0 4.0 0.00 0.00 0.00 79 1008.8
20260510054054 73 0 0.0 3.0 0.00 0.00 0.00 79 1008.5
20260510053555 73 0 0.0 2.0 0.00 0.00 0.00 78 1008.5
20260510053057 73 0 0.0 2.0 0.00 0.00 0.00 78 1008.5
20260510052554 73 207 0.0 2.0 0.00 0.00 0.00 77 1008.6
20260510052054 73 0 0.0 2.0 0.00 0.00 0.00 77 1008.7
20260510051603 73 95 0.0 4.0 0.00 0.00 0.00 76 1008.6
20260510051055 73 0 0.0 4.0 0.00 0.00 0.00 75 1008.6
20260510050554 73 57 0.0 4.0 0.00 0.00 0.00 75 1008.6
20260510050056 73 116 0.0 3.0 0.00 0.00 0.00 75 1008.5
20260510045554 73 61 0.0 2.0 0.00 0.00 0.00 74 1008.6
20260510045054 72 0 0.0 2.0 0.00 0.00 0.00 74 1008.6
20260510044556 72 0 0.0 1.0 0.00 0.00 0.00 73 1008.8
20260510044055 72 0 0.0 2.0 0.00 0.00 0.00 72 1008.9
20260510043555 72 0 0.0 2.0 0.00 0.00 0.00 72 1008.7
20260510043103 72 0 0.0 2.0 0.00 0.00 0.00 71 1008.7
20260510042556 72 0 0.0 1.0 0.00 0.00 0.00 71 1008.8
20260510042054 72 0 0.0 0.0 0.00 0.00 0.00 71 1008.9
20260510041610 72 0 0.0 0.0 0.00 0.00 0.00 71 1008.9
20260510041057 72 0 0.0 1.0 0.00 0.00 0.00 71 1008.7
20260510040555 73 0 0.0 1.0 0.00 0.00 0.00 70 1008.9
20260510040057 73 0 0.0 1.0 0.00 0.00 0.00 70 1009.0
20260510035554 73 0 0.0 0.0 0.00 0.00 0.00 71 1009.0
20260510035054 73 0 0.0 0.0 0.00 0.00 0.00 70 1009.0
20260510034555 73 0 0.0 0.0 0.00 0.00 0.00 70 1009.0
20260510034055 73 0 0.0 0.0 0.00 0.00 0.00 70 1009.0
20260510033554 74 0 0.0 0.0 0.00 0.00 0.00 69 1008.9
20260510033057 74 0 0.0 1.0 0.00 0.00 0.00 69 1009.0
20260510032554 74 0 0.0 1.0 0.00 0.00 0.00 69 1008.9
20260510032058 74 0 0.0 0.0 0.00 0.00 0.00 69 1009.0
20260510031600 74 0 0.0 0.0 0.00 0.00 0.00 70 1009.0
20260510031054 74 0 0.0 0.0 0.00 0.00 0.00 69 1008.9
20260510030554 75 0 0.0 0.0 0.00 0.00 0.00 69 1008.8
20260510030058 75 0 0.0 0.0 0.00 0.00 0.00 68 1008.8
20260510025555 76 0 0.0 0.0 0.00 0.00 0.00 68 1008.7
20260510025059 76 0 0.0 0.0 0.00 0.00 0.00 67 1008.8
20260510024601 77 0 0.0 1.0 0.00 0.00 0.00 65 1008.8
20260510024054 77 0 0.0 1.0 0.00 0.00 0.00 64 1008.8
20260510023555 78 0 0.0 1.0 0.00 0.00 0.00 64 1008.6
20260510023053 78 0 0.0 1.0 0.00 0.00 0.00 63 1008.6
20260510022559 78 0 0.0 1.0 0.00 0.00 0.00 63 1008.6
20260510022053 78 0 0.0 1.0 0.00 0.00 0.00 63 1008.4
20260510021553 79 0 0.0 1.0 0.00 0.00 0.00 62 1008.3
20260510021059 79 136 0.0 4.0 0.00 0.00 0.00 62 1008.3
20260510020555 79 0 0.0 4.0 0.00 0.00 0.00 62 1008.2
20260510020056 80 0 0.0 2.0 0.00 0.00 0.00 61 1008.1
20260510015555 80 0 0.0 2.0 0.00 0.00 0.00 62 1008.1
20260510015054 80 0 0.0 2.0 0.00 0.00 0.00 60 1008.1
20260510014554 81 0 0.0 2.0 0.00 0.00 0.00 60 1007.9
20260510014055 81 0 0.0 2.0 0.00 0.00 0.00 60 1007.8
20260510013555 81 0 0.0 2.0 0.00 0.00 0.00 59 1007.7
20260510013105 82 0 0.0 2.0 0.00 0.00 0.00 59 1007.7
20260510012554 82 79 0.0 3.0 0.00 0.00 0.00 59 1007.7
20260510012054 83 271 0.0 3.0 0.00 0.00 0.00 59 1007.8
20260510011600 83 132 0.0 3.0 0.00 0.00 0.00 59 1007.6
20260510011056 83 0 0.0 3.0 0.00 0.00 0.00 59 1007.5
20260510010557 83 65 0.0 2.0 0.00 0.00 0.00 59 1007.5
20260510010110 84 0 0.0 1.0 0.00 0.00 0.00 58 1007.5
20260510005555 84 0 0.0 1.0 0.00 0.00 0.00 57 1007.5
20260510005054 84 0 0.0 2.0 0.00 0.00 0.00 56 1007.5
20260510004600 85 0 0.0 2.0 0.00 0.00 0.00 56 1007.4
20260510004054 85 0 0.0 2.0 0.00 0.00 0.00 56 1007.3
20260510003555 85 0 0.0 4.0 0.00 0.00 0.00 56 1007.4
20260510003059 86 171 1.0 4.0 0.00 0.00 0.00 54 1007.4
20260510002558 86 0 0.0 4.0 0.00 0.00 0.00 55 1007.4
20260510002054 85 0 0.0 3.0 0.00 0.00 0.00 55 1007.4
20260510001555 86 0 0.0 3.0 0.00 0.00 0.00 55 1007.4
20260510001052 86 0 0.0 3.0 0.00 0.00 0.00 53 1007.4
20260510000553 86 192 0.0 1.0 0.00 0.00 0.00 54 1007.3
20260510000108 85 0 0.0 2.0 0.00 0.00 0.00 55 1007.4
20260509235552 85 0 0.0 2.0 0.00 0.00 0.00 56 1007.4
20260509235052 85 0 0.0 1.0 0.00 0.00 0.00 54 1007.2
20260509234604 86 0 0.0 1.0 0.00 0.00 0.00 53 1007.3
20260509234055 86 0 0.0 2.0 0.00 0.00 0.00 53 1007.2
20260509233556 86 0 0.0 2.0 0.00 0.00 0.00 53 1007.3
20260509233053 86 244 0.0 2.0 0.00 0.00 0.00 51 1007.3
20260509232555 86 0 0.0 2.0 0.00 0.00 0.00 51 1007.3
20260509232055 86 0 0.0 2.0 0.00 0.00 0.00 52 1007.3
20260509231557 86 0 0.0 1.0 0.00 0.00 0.00 51 1007.4
20260509231054 87 0 0.0 1.0 0.00 0.00 0.00 50 1007.3
20260509230554 87 0 0.0 1.0 0.00 0.00 0.00 50 1007.3
20260509225555 87 0 0.0 2.0 0.00 0.00 0.00 47 1007.5
20260509225054 87 0 0.0 2.0 0.00 0.00 0.00 51 1007.3
20260509224601 87 0 0.0 2.0 0.00 0.00 0.00 50 1007.4
20260509224055 87 0 0.0 1.0 0.00 0.00 0.00 49 1007.4
20260509223552 87 0 0.0 1.0 0.00 0.00 0.00 50 1007.4
20260509223054 87 0 0.0 2.0 0.00 0.00 0.00 51 1007.4
20260509222552 87 0 0.0 2.0 0.00 0.00 0.00 50 1007.5
20260509222052 87 0 0.0 2.0 0.00 0.00 0.00 49 1007.4
20260509221612 88 0 0.0 1.0 0.00 0.00 0.00 51 1007.4
20260509221055 88 232 0.0 2.0 0.00 0.00 0.00 51 1007.4
20260509220555 87 0 0.0 2.0 0.00 0.00 0.00 49 1007.5
20260509220105 87 0 0.0 2.0 0.00 0.00 0.00 50 1007.5
20260509215555 88 0 0.0 2.0 0.00 0.00 0.00 50 1007.5
20260509215055 88 0 0.0 2.0 0.00 0.00 0.00 50 1007.5
20260509214602 88 0 0.0 2.0 0.00 0.00 0.00 48 1007.6
20260509214055 88 0 0.0 2.0 0.00 0.00 0.00 49 1007.7
20260509213554 88 0 0.0 3.0 0.00 0.00 0.00 48 1007.7
20260509213102 89 320 0.0 3.0 0.00 0.00 0.00 46 1007.9
20260509212554 89 0 0.0 4.0 0.00 0.00 0.00 48 1007.7
20260509212057 89 0 0.0 4.0 0.00 0.00 0.00 45 1008.0
20260509211557 89 0 0.0 4.0 0.00 0.00 0.00 46 1008.1
20260509211055 89 61 1.0 4.0 0.00 0.00 0.00 46 1008.1
20260509210553 89 179 0.0 3.0 0.00 0.00 0.00 47 1008.2
20260509210104 89 198 0.0 2.0 0.00 0.00 0.00 47 1008.2
20260509205554 90 0 0.0 2.0 0.00 0.00 0.00 52 1008.3
20260509205052 90 0 0.0 2.0 0.00 0.00 0.00 53 1008.4
20260509204601 90 0 0.0 2.0 0.00 0.00 0.00 57 1008.5
20260509204052 90 0 0.0 2.0 0.00 0.00 0.00 53 1008.5
20260509203554 89 352 0.0 2.0 0.00 0.00 0.00 50 1008.6
20260509203058 89 0 0.0 1.0 0.00 0.00 0.00 50 1008.8
20260509202557 89 0 0.0 2.0 0.00 0.00 0.00 50 1008.7
20260509202058 90 0 0.0 2.0 0.00 0.00 0.00 54 1008.8
20260509201554 90 0 0.0 2.0 0.00 0.00 0.00 48 1008.8
20260509201054 90 0 0.0 2.0 0.00 0.00 0.00 57 1008.8
20260509200554 89 196 0.0 2.0 0.00 0.00 0.00 49 1008.9
20260509200105 90 0 0.0 2.0 0.00 0.00 0.00 56 1009.1
20260509195557 89 24 0.0 2.0 0.00 0.06 0.00 57 1009.0
20260509195056 88 0 0.0 2.0 0.00 0.06 0.00 51 1009.1
20260509194556 89 120 0.0 5.0 0.00 0.06 0.00 51 1009.4
20260509194054 88 114 1.0 5.0 0.00 0.06 0.00 52 1009.3
20260509193556 88 13 0.0 5.0 0.00 0.06 0.00 51 1009.2
20260509193108 88 5 0.0 3.0 0.00 0.06 0.00 54 1009.4
20260509192554 87 53 1.0 3.0 0.00 0.06 0.00 55 1009.6
20260509192059 87 126 0.0 2.0 0.00 0.06 0.00 56 1009.4
20260509191613 88 0 0.0 3.0 0.00 0.06 0.00 52 1009.6
20260509191053 87 46 0.0 3.0 0.00 0.06 0.00 56 1009.6
20260509190553 87 0 0.0 3.0 0.00 0.06 0.00 60 1009.5
20260509190112 87 0 0.0 2.0 0.00 0.06 0.00 55 1009.6
20260509185555 87 64 0.0 3.0 0.00 0.06 0.00 57 1009.8
20260509185054 87 0 0.0 3.0 0.00 0.06 0.00 54 1009.7
20260509184555 86 46 0.0 3.0 0.00 0.06 0.00 59 1009.8
20260509184054 86 161 0.0 2.0 0.00 0.06 0.00 53 1009.7
20260509183554 87 0 0.0 3.0 0.00 0.06 0.00 57 1009.9
20260509183059 87 162 0.0 3.0 0.00 0.06 0.00 60 1010.0
20260509182555 86 105 0.0 3.0 0.00 0.06 0.00 57 1009.9
20260509182054 86 27 0.0 4.0 0.00 0.06 0.00 58 1010.0
20260509181555 85 64 0.0 4.0 0.00 0.06 0.00 60 1010.2
20260509181055 86 0 1.0 4.0 0.00 0.06 0.00 57 1010.3
20260509180555 85 31 0.0 2.0 0.00 0.06 0.00 55 1010.3
20260509180058 85 0 0.0 2.0 0.00 0.06 0.00 58 1010.4
20260509175552 85 71 0.0 3.0 0.00 0.06 0.00 56 1010.5
20260509175052 86 0 0.0 4.0 0.00 0.06 0.00 57 1010.6
20260509174554 85 0 0.0 4.0 0.00 0.06 0.00 61 1010.6
20260509174057 85 15 0.0 2.0 0.00 0.06 0.00 60 1010.6
20260509173551 84 0 0.0 3.0 0.00 0.06 0.00 57 1010.7
20260509173104 84 0 0.0 3.0 0.00 0.06 0.00 59 1010.5
20260509172558 84 0 0.0 2.0 0.00 0.06 0.00 63 1010.7
20260509172055 83 0 0.0 2.0 0.00 0.06 0.00 59 1010.8
20260509171618 83 0 0.0 3.0 0.00 0.06 0.00 57 1010.9
20260509171054 83 0 0.0 3.0 0.00 0.06 0.00 59 1010.8
20260509170554 83 106 0.0 4.0 0.00 0.06 0.00 62 1010.9
20260509170059 83 0 0.0 4.0 0.00 0.06 0.00 60 1010.9
20260509165554 83 0 0.0 2.0 0.00 0.06 0.00 60 1011.1
20260509165054 83 0 0.0 4.0 0.00 0.06 0.00 59 1011.0
20260509164556 82 0 1.0 4.0 0.00 0.06 0.00 64 1011.1
20260509164055 82 0 0.0 2.0 0.00 0.06 0.00 63 1011.3
20260509163553 81 111 0.0 2.0 0.00 0.06 0.00 65 1011.1
20260509163059 81 0 0.0 2.0 0.00 0.06 0.00 65 1011.3
20260509162555 81 0 0.0 3.0 0.00 0.06 0.00 68 1011.0
20260509162054 82 0 0.0 3.0 0.00 0.06 0.00 68 1011.1
20260509161558 81 0 1.0 4.0 0.00 0.06 0.00 67 1011.0
20260509161054 81 0 1.0 4.0 0.00 0.06 0.00 68 1011.1
20260509160555 81 221 0.0 4.0 0.00 0.06 0.00 70 1011.1
20260509160057 80 340 0.0 4.0 0.00 0.06 0.00 69 1011.0
20260509155556 80 34 0.0 2.0 0.00 0.06 0.00 69 1011.0
20260509155054 80 0 0.0 2.0 0.00 0.06 0.00 71 1011.2
20260509154557 79 123 0.0 3.0 0.00 0.06 0.00 72 1011.2
20260509154054 78 67 0.0 3.0 0.00 0.06 0.00 73 1011.1
20260509153555 78 98 1.0 3.0 0.00 0.06 0.00 73 1011.2
20260509153058 79 0 0.0 3.0 0.00 0.06 0.00 71 1011.1
20260509152555 79 126 1.0 3.0 0.00 0.06 0.00 73 1011.2
20260509152055 79 40 0.0 2.0 0.00 0.06 0.00 72 1011.1
20260509151600 78 0 0.0 4.0 0.00 0.06 0.00 74 1011.3
20260509151058 78 0 0.0 4.0 0.00 0.06 0.00 73 1011.2
20260509150555 77 346 0.0 3.0 0.00 0.06 0.00 76 1011.2
20260509150058 76 24 1.0 3.0 0.00 0.06 0.00 75 1011.3
20260509145558 77 43 1.0 3.0 0.00 0.06 0.00 76 1011.3
20260509145054 77 51 0.0 5.0 0.00 0.06 0.00 76 1011.4
20260509144558 76 0 0.0 5.0 0.00 0.06 0.00 77 1011.4
20260509144054 76 48 1.0 4.0 0.00 0.06 0.00 77 1011.3
20260509143554 75 53 0.0 4.0 0.00 0.06 0.00 79 1011.3
20260509143058 75 56 1.0 4.0 0.00 0.06 0.00 79 1011.2
20260509142554 75 57 1.0 5.0 0.00 0.06 0.00 78 1011.1
20260509142054 74 51 1.0 5.0 0.00 0.06 0.00 79 1011.2
20260509141554 74 32 0.0 3.0 0.00 0.06 0.00 80 1011.1
20260509141055 74 67 0.0 4.0 0.00 0.06 0.00 80 1011.0
20260509140554 73 0 1.0 4.0 0.00 0.06 0.00 80 1011.0
20260509140059 73 61 1.0 3.0 0.00 0.06 0.00 81 1011.0
20260509135556 73 67 1.0 2.0 0.00 0.06 0.00 82 1011.1
20260509135055 72 45 0.0 3.0 0.00 0.06 0.00 83 1011.1
20260509134607 71 101 0.0 3.0 0.00 0.06 0.00 85 1010.9
20260509134054 71 62 0.0 2.0 0.00 0.06 0.00 86 1010.8
20260509133555 70 43 0.0 2.0 0.00 0.06 0.00 87 1010.9
20260509133057 70 34 0.0 2.0 0.00 0.06 0.00 87 1010.8
20260509132555 69 0 0.0 2.0 0.00 0.06 0.00 88 1010.7
20260509132057 69 0 0.0 2.0 0.00 0.06 0.00 89 1010.6
20260509131634 69 0 0.0 1.0 0.00 0.06 0.00 89 1010.4
20260509131055 69 0 0.0 1.0 0.00 0.06 0.00 89 1010.5
20260509130554 68 0 0.0 1.0 0.00 0.06 0.00 90 1010.6
20260509130125 68 0 0.0 1.0 0.00 0.06 0.00 90 1010.5
20260509125554 68 0 0.0 0.0 0.00 0.06 0.00 91 1010.3
20260509125056 68 0 0.0 0.0 0.00 0.06 0.00 91 1010.3
20260509124554 68 0 0.0 1.0 0.00 0.06 0.00 91 1010.4
20260509124055 67 0 0.0 1.0 0.00 0.06 0.00 92 1010.2
20260509123555 67 0 0.0 1.0 0.00 0.06 0.00 92 1010.1
20260509123101 67 0 0.0 2.0 0.00 0.06 0.00 92 1010.2
20260509122554 67 0 0.0 2.0 0.00 0.06 0.00 92 1010.0
20260509122054 66 0 0.0 0.0 0.00 0.06 0.00 93 1010.1
20260509121554 66 0 0.0 0.0 0.00 0.06 0.00 93 1010.1
20260509121055 66 0 0.0 0.0 0.00 0.06 0.00 92 1010.1
20260509120556 66 0 0.0 0.0 0.00 0.06 0.00 92 1010.2
20260509120105 66 0 0.0 0.0 0.00 0.06 0.00 92 1010.1
20260509115554 66 0 0.0 0.0 0.00 0.06 0.00 92 1010.1
20260509115054 66 0 0.0 0.0 0.00 0.06 0.00 92 1010.1
20260509114608 66 0 0.0 0.0 0.00 0.06 0.00 92 1010.3
20260509114054 66 0 0.0 0.0 0.00 0.06 0.00 92 1010.3
20260509113555 67 0 0.0 0.0 0.00 0.06 0.00 92 1010.4
20260509113101 67 0 0.0 0.0 0.00 0.06 0.00 92 1010.4
20260509112555 67 0 0.0 0.0 0.00 0.06 0.00 92 1010.2
20260509112056 67 0 0.0 0.0 0.00 0.06 0.00 92 1010.5
20260509111555 67 0 0.0 0.0 0.00 0.06 0.00 92 1010.3
20260509111055 67 0 0.0 0.0 0.00 0.06 0.00 92 1010.2
20260509110555 68 0 0.0 0.0 0.00 0.06 0.00 93 1010.1
20260509110105 68 0 0.0 0.0 0.00 0.06 0.00 93 1010.0